Weather Service Report


825 
ASUS43 KMKX 290521
RWRWI 

WISCONSIN REGIONAL WEATHER ROUNDUP
NATIONAL WEATHER SERVICE MILWAUKEE/SULLIVAN WI
1200 AM CDT WED JUN 29 2016

NOTE: "FAIR" INDICATES FEW OR NO CLOUDS BELOW 12,000 FEET WITH NO
SIGNIFICANT WEATHER AND/OR OBSTRUCTIONS TO VISIBILITY.

WIZ001-002-006>008-014>016-023>028-290600-
NORTHWEST WISCONSIN
  
CITY           SKY/WX    TMP DP  RH WIND       PRES   REMARKS
SUPERIOR ARPT  CLEAR     52  51  94 SW3       30.11F                  
ASHLAND        CLEAR     50  48  93 SW3       30.13S                  
HAYWARD        CLEAR     51  49  92 N5        30.14F                  
SIREN          CLEAR     54  52  94 CALM      30.14R                  
CUMBERLAND     CLEAR     54  52  94 W3        30.14                   
RICE LAKE      CLEAR     55  53  93 CALM      30.15S                  
CHETEK         CLEAR     55  54  97 CALM      30.13F                  
LADYSMITH      CLEAR     53  49  87 CALM      30.15F                  
EAU CLAIRE     CLEAR     58  56  93 CALM      30.12F                  
MENOMONIE      PTCLDY    57  51  81 W3        30.14R                  
NEW RICHMOND   CLEAR     55  53  94 CALM      30.15R                  
OSCEOLA        CLEAR     55  55 100 CALM      30.18R                  
$$
 
WIZ003>005-009-010-017-018-290600-
NORTH CENTRAL WISCONSIN
  
CITY           SKY/WX    TMP DP  RH WIND       PRES   REMARKS
MANITOWISH WTR CLEAR     46  46 100 CALM      30.16                   
ARBOR VITAE    CLEAR     51  49  92 CALM      30.16R                  
WOODRUFF       CLEAR     51  49  92 CALM      30.16R                  
RHINELANDER    CLEAR     50  45  83 CALM      30.16S                  
EAGLE RIVER    CLEAR     46  44  95 CALM      30.15S                  
LAND O LAKES   CLEAR     45  44  97 CALM      30.16S                  
PHILLIPS       CLEAR     50  46  87 CALM      30.14F                  
TOMAHAWK       CLEAR     47  46  94 CALM      30.16S                  
MEDFORD        CLEAR     51  51 100 CALM      30.14S                  
MERRILL        CLEAR     53  49  88 NE5       30.15S                  
$$
 
WIZ029-030-035-036-043>047-290600-
CENTRAL WISCONSIN
  
CITY           SKY/WX    TMP DP  RH WIND       PRES   REMARKS
WAUSAU         CLEAR     59  51  75 N5        30.12S                  
MOSINEE        CLEAR     57  54  88 CALM      30.14S                  
MARSHFIELD     CLEAR     57  52  83 NW3       30.12F                  
STEVENS POINT  CLEAR     53  50  90 CALM      30.13S                  
WAUPACA        CLEAR     58  56  95 NE6       30.12S                  
WAUTOMA        CLEAR     55  52  89 MISG        N/A                   
WISC RAPIDS    CLEAR     54  50  86 CALM      30.13F                  
CAMP DOUGLAS   CLEAR     50  50 100 NW3       30.12F FOG              
$$
 
WIZ011>013-019>022-031-037>040-048>050-290600-
NORTHEAST WISCONSIN
  
CITY           SKY/WX    TMP DP  RH WIND       PRES   REMARKS
ANTIGO         CLEAR     51  49  93 CALM      30.15S                  
SHAWANO        CLEAR     58  49  71 E3        30.13                   
OCONTO         PTCLDY    52  52 100 CALM      30.13                   
STURGEON BAY   CLEAR     54  50  86 CALM      30.14S                  
GREEN BAY      CLEAR     57  52  83 CALM      30.13S                  
MANITOWOC      CLEAR     53  50  89 CALM      30.14R                  
APPLETON       CLEAR     61  50  67 E5        30.11S                  
CLINTONVILLE   CLEAR     55  52  88 SE3       30.12S                  
OSHKOSH        CLEAR     59  51  75 CALM      30.11S                  
$$
 
WIZ032>034-041-042-053>061-290600-
SOUTHWEST WISCONSIN
  
CITY           SKY/WX    TMP DP  RH WIND       PRES   REMARKS
LA CROSSE      CLEAR     60  54  80 E3        30.13R                  
SPARTA         CLEAR     52  51  97 CALM      30.14S                  
VIROQUA        CLEAR     57  52  85 CALM      30.14S                  
BOSCOBEL       CLEAR     54  53  97 CALM      30.13S                  
PRAIRIE DU CHI CLEAR     57  54  89 CALM      30.15R                  
PLATTEVILLE    NOT AVBL                                               
$$

WIZ056-057-062-063-064-067-068-290600-
SOUTH CENTRAL WISCONSIN
  
CITY           SKY/WX    TMP DP  RH WIND       PRES   REMARKS
REEDSBURG      CLEAR     54  54  99 CALM      30.12S                  
BARABOO/DELLS  CLEAR     55  50  82 CALM      30.12F                  
LONE ROCK      CLEAR     57  55  93 CALM      30.13F                  
MINERAL POINT  CLEAR     61  55  82 CALM      30.14R                  
MADISON        CLEAR     55  51  86 CALM      30.12F                  
MIDDLETON      CLEAR     56  55  96 CALM      30.13S                  
WATERTOWN      CLEAR     55  54  97 CALM      30.12S                  
MONROE         CLEAR     61  50  67 S3        30.14R                  
JANESVILLE     CLEAR     57  50  77 CALM      30.12S                  
$$
 
WIZ051-052-058>065-066-070>072-290600-
SOUTHEAST WISCONSIN
  
CITY           SKY/WX    TMP DP  RH WIND       PRES   REMARKS
MILWAUKEE      CLEAR     58  51  78 CALM      30.12F                  
WAUKESHA       CLEAR     54  50  87 CALM      30.14S                  
MILWAUKEE/TIMM CLEAR     55  46  71 CALM      30.13F                  
RACINE         CLEAR     55  51  86 CALM      30.13F                  
BURLINGTON     CLEAR     54  53  99 CALM      30.13S                  
KENOSHA        CLEAR     52  50  93 W3        30.12F                  
FOND DU LAC    CLEAR     57  52  83 S5        30.12S                  
SHEBOYGAN      CLEAR     53  50  89 CALM      30.13S                  
WEST BEND      CLEAR     52  50  93 CALM      30.13F                  
JUNEAU         CLEAR     57  52  84 CALM      30.13F                  
$$

LSZ147-162-290600-
LAKE SUPERIOR
  
STATION/POSITION TIME  TEMP    WIND        PRES    WAVE
                       AIR SEA DIR/SP/G            HT/PER
                 (UTC) (F)     (DEG/KT/KT) (MB)    (FT/S)
W MID LAKE BUOY  0450   49 44  180/  6/  6 1020.0F   0
DEVILS ISLAND    0500   64     190/  8/  9 1019.4F
PORT WING        0400   59                 1020.0
SAXON HARBOR     0400   55     190/  7/  9 1019.6
$$
 
LMZ867-665-643>646-290600-
LAKE MICHIGAN
  
STATION/POSITION TIME  TEMP    WIND        PRES    WAVE
                       AIR SEA DIR/SP/G            HT/PER
                 (UTC) (F)     (DEG/KT/KT) (MB)    (FT/S)
CHAMBERS ISLAND  0400   65      20/  9/ 13 1020.0S
S GREEN BAY BUOY 0500   65 69  100/  8/ 10   N/A
N MID LAKE BUOY  0450   59 59   30/ 10/ 12 1019.7F   1/ 3
NORTHPORT PIER   0400   58     310/  3/  4 1020.3S
SISTER BAY       0405   58        CALM       N/A
ALGOMA LAKESHORE 0411             CALM       N/A
KEWAUNEE LAKESHO 0400   56     310/  3/  4 1019.7R
SHEBOYGAN LAKESH 0500   61     270/  3/  3 1020.6S
PORT WASHINGTON  0440   59     280/  2/  3 1020.7S
ATWATER BUOY     0500   63 64   60/  2/  4 1021.5F
MILWAUKEE LAKESH 0410   62      90/  2/  2   N/A
S MID LAKE BUOY  0450   62 62   10/ 10/ 12 1019.0F   2/ 6
KENOSHA   LAKESH 0500   63      20/  3/  6 1019.3F
$$

TC  - TEMPERATURE IN CELSIUS
VSB - VISIBILITY IN STATUTE MILES
WCI - WIND CHILL INDEX
HX  - HEAT INDEX

  

Return to Home page


Western Regional Climate Center, wrcc@dri.edu